K5IUC Weather Reports


time (UTC)temp
C
wind
direction
speed
KPH
gust
KPH
rain 1hr
cm
rain 24hr
cm
rain mn
cm
humidity
%
barometer
mb
20260506044617 18 23 11.3 16.1 0.00 0.00 0.00 74 1006.8
20260506043617 19 23 11.3 16.1 0.00 0.00 0.00 74 1006.9
20260506042617 20 0 12.9 20.9 0.00 0.00 0.00 73 1007.3
20260506041617 20 0 11.3 16.1 0.00 0.00 0.00 73 1007.2
20260506040617 20 0 8.0 9.7 0.00 0.00 0.00 73 1006.8
20260506035637 20 23 12.9 24.1 0.00 0.00 0.00 72 1006.5
20260506034617 20 23 8.0 12.9 0.00 0.00 0.00 72 1006.0
20260506033617 21 23 9.7 14.5 0.00 0.00 0.00 71 1006.1
20260506032617 21 23 11.3 16.1 0.00 0.00 0.00 70 1005.8
20260506031617 21 338 9.7 14.5 0.00 0.00 0.00 69 1005.6
20260506030617 21 338 6.4 12.9 0.00 0.00 0.00 69 1005.6
20260506025617 21 45 12.9 19.3 0.00 0.00 0.00 69 1005.4
20260506024617 22 45 11.3 16.1 0.00 0.00 0.00 70 1005.6
20260506023617 22 45 16.1 20.9 0.00 0.00 0.00 69 1005.2
20260506022617 22 0 11.3 17.7 0.00 0.00 0.00 68 1005.1
20260506021617 22 45 8.0 14.5 0.00 0.00 0.00 68 1004.8
20260506020617 23 338 9.7 14.5 0.00 0.00 0.00 67 1004.7
20260506015617 23 45 11.3 16.1 0.00 0.00 0.00 67 1004.2
20260506014617 23 23 8.0 12.9 0.00 0.00 0.00 67 1003.8
20260506013617 24 23 14.5 20.9 0.00 0.00 0.00 67 1003.7
20260506012617 25 45 9.7 14.5 0.00 0.00 0.00 66 1003.7
20260506011617 25 0 8.0 12.9 0.00 0.00 0.00 65 1003.6
20260506010617 25 45 14.5 20.9 0.00 0.00 0.00 63 1003.3
20260506005617 26 45 9.7 12.9 0.00 0.00 0.00 63 1003.3
20260506004617 26 45 11.3 17.7 0.00 0.00 0.00 62 1003.1
20260506003619 26 23 9.7 14.5 0.00 0.00 0.00 61 1003.1
20260506002617 27 0 4.8 8.0 0.00 0.00 0.00 60 1003.1
20260506001617 27 23 3.2 6.4 0.00 0.00 0.00 59 1003.0
20260506000616 27 0 9.7 22.5 0.00 0.00 0.00 58 1003.1
20260505235617 28 338 11.3 16.1 0.00 0.00 0.00 57 1002.9
20260505234617 28 0 6.4 11.3 0.00 0.00 0.00 57 1002.7
20260505233617 28 338 8.0 12.9 0.00 0.00 0.00 57 1002.9
20260505232617 30 0 9.7 16.1 0.00 0.00 0.00 54 1002.7
20260505231616 31 338 8.0 11.3 0.00 0.00 0.00 49 1002.8
20260505230637 31 315 8.0 11.3 0.00 0.00 0.00 48 1002.5
20260505225617 31 338 8.0 14.5 0.00 0.00 0.00 48 1002.6
20260505224616 32 315 12.9 19.3 0.00 0.00 0.00 46 1002.6
20260505223616 33 315 6.4 8.0 0.00 0.00 0.00 46 1002.6
20260505222616 33 248 1.6 3.2 0.00 0.00 0.00 44 1002.6
20260505221616 33 270 6.4 8.0 0.00 0.00 0.00 45 1002.6
20260505220656 33 315 3.2 6.4 0.00 0.00 0.00 46 1002.5
20260505215616 33 293 8.0 12.9 0.00 0.00 0.00 45 1002.6
20260505214616 33 248 9.7 14.5 0.00 0.00 0.00 45 1002.3
20260505213616 33 225 6.4 11.3 0.00 0.00 0.00 44 1002.5
20260505212636 33 248 1.6 3.2 0.00 0.00 0.00 48 1002.4
20260505211617 33 225 6.4 9.7 0.00 0.00 0.00 47 1002.8
20260505210616 33 293 8.0 11.3 0.00 0.00 0.00 48 1002.8
20260505205616 32 225 4.8 9.7 0.00 0.00 0.00 50 1003.0
20260505204616 32 270 9.7 12.9 0.00 0.00 0.00 49 1003.1
20260505203616 32 293 4.8 9.7 0.00 0.00 0.00 52 1003.0
20260505202616 32 248 8.0 11.3 0.00 0.00 0.00 54 1003.2
20260505201616 32 248 9.7 19.3 0.00 0.00 0.00 55 1003.5
20260505200616 31 225 8.0 12.9 0.00 0.00 0.00 56 1003.4
20260505195616 31 225 14.5 25.7 0.00 0.00 0.00 56 1003.6
20260505194616 31 225 12.9 20.9 0.00 0.00 0.00 57 1003.6
20260505193617 31 248 14.5 20.9 0.00 0.00 0.00 57 1003.6
20260505192616 31 248 9.7 14.5 0.00 0.00 0.00 58 1003.6
20260505191616 31 225 17.7 24.1 0.00 0.00 0.00 58 1003.7
20260505190616 31 225 14.5 19.3 0.00 0.00 0.00 60 1003.6
20260505185616 30 225 11.3 16.1 0.00 0.00 0.00 60 1003.5
20260505184616 30 270 12.9 19.3 0.00 0.00 0.00 62 1003.7
20260505183616 30 225 12.9 19.3 0.00 0.00 0.00 62 1003.8
20260505182615 30 203 11.3 14.5 0.00 0.00 0.00 64 1003.8
20260505181636 30 225 14.5 19.3 0.00 0.00 0.00 65 1003.8
20260505180616 29 225 12.9 19.3 0.00 0.00 0.00 65 1003.7
20260505175616 29 225 14.5 17.7 0.00 0.00 0.00 65 1003.8
20260505174616 28 225 12.9 24.1 0.00 0.00 0.00 67 1003.6
20260505173616 28 203 14.5 19.3 0.00 0.00 0.00 66 1003.8
20260505172636 28 225 9.7 17.7 0.00 0.00 0.00 68 1003.8
20260505171636 27 225 9.7 19.3 0.00 0.00 0.00 68 1003.7
20260505170616 28 248 11.3 17.7 0.00 0.00 0.00 68 1003.8
20260505165616 28 225 12.9 20.9 0.00 0.00 0.00 68 1004.1
20260505164616 28 248 6.4 12.9 0.00 0.00 0.00 69 1004.0
20260505163616 27 203 11.3 17.7 0.00 0.00 0.00 70 1003.7
20260505162615 27 203 14.5 22.5 0.00 0.00 0.00 70 1003.5
20260505161617 27 225 8.0 12.9 0.00 0.00 0.00 71 1003.5
20260505160658 26 225 12.9 22.5 0.00 0.00 0.00 72 1003.5
20260505152618 25 248 16.1 25.7 0.00 0.00 0.00 75 1003.2
20260505151618 25 225 8.0 16.1 0.00 0.00 0.00 75 1003.4
20260505150617 25 248 16.1 25.7 0.00 0.00 0.00 77 1003.4
20260505140617 23 225 11.3 17.7 0.00 0.00 0.00 81 1003.1
20260505124618 21 225 12.9 22.5 0.00 0.00 0.00 87 1002.2
20260505123637 21 225 9.7 12.9 0.00 0.00 0.00 88 1002.1
20260505122637 21 225 6.4 11.3 0.00 0.00 0.00 88 1001.9
20260505121617 21 225 6.4 9.7 0.00 0.00 0.00 88 1001.9
20260505120637 21 225 9.7 12.9 0.00 0.00 0.00 88 1001.7
20260505115658 21 225 8.0 11.3 0.00 0.00 0.00 88 1001.8
20260505114637 21 225 9.7 12.9 0.00 0.00 0.00 88 1001.8
20260505113617 21 225 8.0 11.3 0.00 0.00 0.00 88 1001.6
20260505112617 21 225 8.0 12.9 0.00 0.00 0.00 88 1001.6
20260505111617 21 225 6.4 9.7 0.00 0.00 0.00 88 1001.7
20260505110617 21 225 9.7 12.9 0.00 0.00 0.00 88 1001.6
20260505101617 21 225 11.3 16.1 0.00 0.00 0.00 87 1001.8
20260505100638 21 203 12.9 20.9 0.00 0.00 0.00 86 1001.8
20260505095638 21 225 14.5 22.5 0.00 0.00 0.00 86 1001.8
20260505094617 21 225 12.9 17.7 0.00 0.00 0.00 86 1001.9
20260505093617 21 225 8.0 17.7 0.00 0.00 0.00 86 1002.0
20260505092617 21 225 12.9 20.9 0.00 0.00 0.00 86 1001.9
20260505091637 21 225 12.9 17.7 0.00 0.00 0.00 85 1002.1
20260505090617 21 203 11.3 17.7 0.00 0.00 0.00 85 1002.4
20260505085617 21 225 11.3 14.5 0.00 0.00 0.00 85 1002.3
20260505084617 22 225 12.9 19.3 0.00 0.00 0.00 84 1002.3
20260505083617 22 225 14.5 20.9 0.00 0.00 0.00 84 1002.2
20260505082616 22 203 14.5 20.9 0.00 0.00 0.00 83 1002.3
20260505081617 22 225 12.9 20.9 0.00 0.00 0.00 83 1002.4
20260505080616 22 225 14.5 24.1 0.00 0.00 0.00 83 1002.4
20260505075617 22 203 9.7 16.1 0.00 0.00 0.00 82 1002.6
20260505074616 22 225 9.7 17.7 0.00 0.00 0.00 82 1002.7
20260505073617 22 225 11.3 20.9 0.00 0.00 0.00 81 1002.8
20260505072657 22 225 12.9 16.1 0.00 0.00 0.00 81 1002.9
20260505071637 22 225 9.7 16.1 0.00 0.00 0.00 80 1003.2
20260505070616 22 180 17.7 25.7 0.00 0.00 0.00 80 1003.3
20260505065617 22 203 9.7 12.9 0.00 0.00 0.00 79 1003.5
20260505064616 23 225 12.9 19.3 0.00 0.00 0.00 78 1003.7
20260505063616 23 180 11.3 17.7 0.00 0.00 0.00 77 1003.8
20260505062617 23 225 11.3 16.1 0.00 0.00 0.00 77 1003.9
20260505061616 23 225 8.0 11.3 0.00 0.00 0.00 76 1003.9
20260505060616 23 225 11.3 17.7 0.00 0.00 0.00 76 1003.9
20260505055616 23 203 11.3 20.9 0.00 0.00 0.00 75 1003.8
20260505054637 23 225 12.9 20.9 0.00 0.00 0.00 74 1003.7
20260505053617 23 203 12.9 17.7 0.00 0.00 0.00 73 1003.7
20260505052637 23 225 11.3 17.7 0.00 0.00 0.00 72 1003.7
20260505051616 24 225 12.9 24.1 0.00 0.00 0.00 71 1003.7
20260505050616 24 203 11.3 17.7 0.00 0.00 0.00 71 1004.0